Cloud_Cover
48 25 5 0 0 2 5 2 5 5 5 14 25 3 2 94 100 90 9 6 27 100 98 10 9 1 2 55 5 4 5 5 5 4 5 2 4 5 5 1 0 0 0
48 40 5 5 0 0 4 3 24 12 5 5 6 5 15 4 14 20 77 61 95 100 76 73 2 0 5 87 5 5 5 5 2 0 0 0 0 1 2 3 0 5 0
34 8 12 12 3 5 5 5 5 12 5 5 3 5 5 6 5 35 68 100 100 100 99 2 0 50 5 5 5 8 5 2 0 18 0 0 2 4 1 68 100 28 0
21 5 13 10 10 5 5 1 5 5 5 5 5 5 5 5 5 5 7 71 100 87 91 2 5 5 11 9 10 23 4 0 0 0 0 0 0 0 70 86 100 59 42
5 5 5 5 5 5 5 5 0 4 5 9 5 5 5 4 5 5 82 100 86 88 1 2 5 5 24 16 4 0 0 0 0 5 2 3 0 0 0 1 8 18 97
23 52 5 5 5 5 13 5 0 5 5 5 6 5 5 5 5 5 12 95 46 4 0 2 5 19 5 5 0 0 0 0 0 0 0 3 0 0 0 0 0 8 97
23 14 5 24 5 4 4 3 0 0 1 5 25 6 5 5 1 0 1 4 5 1 0 4 1 5 5 0 0 0 0 0 0 0 0 0 0 0 0 0 0 0 0
46 44 12 5 5 5 3 1 0 0 0 0 5 1 3 2 4 0 0 3 4 0 0 0 0 1 5 0 0 0 0 0 0 0 0 0 0 0 0 0 0 0 0
65 48 40 27 5 5 6 5 2 2 0 0 1 0 0 0 0 0 0 0 0 0 0 0 0 0 0 0 0 0 0 0 0 0 0 0 0 0 0 0 0 0 0
50 40 40 12 5 35 66 37 15 5 0 5 5 12 0 0 0 0 0 0 0 0 0 0 0 0 0 0 0 0 0 0 0 0 0 0 0 3 0 0 0 0 0
100 100 90 19 5 30 40 9 10 5 5 4 5 5 4 0 0 0 0 0 0 0 0 0 0 0 0 0 0 0 0 0 0 0 0 0 2 2 0 0 0 0 0
100 100 100 100 82 94 32 5 5 5 5 5 5 5 5 0 3 1 0 0 0 0 0 0 0 0 0 0 0 0 0 0 0 0 0 0 2 5 5 5 2 1 2
100 100 100 100 100 90 100 92 6 5 5 5 5 5 5 3 4 5 12 0 2 0 0 0 0 0 0 0 0 0 0 0 0 0 4 5 5 5 5 5 6 1 0
100 100 100 100 100 100 100 100 42 5 5 5 5 16 29 5 1 2 17 0 1 0 3 0 0 0 3 5 5 5 1 0 0 3 5 5 5 8 5 5 5 16 25
100 100 100 100 100 100 100 94 98 21 9 5 8 45 53 23 5 0 0 3 4 5 5 5 5 5 5 5 5 5 5 5 5 5 10 79 99 100 71 5 5 5 17
100 73 90 100 100 100 100 100 100 96 79 62 46 69 58 14 5 0 3 5 5 14 5 5 5 5 5 5 5 5 5 5 5 6 50 83 100 36 5 5 5 5 18
100 100 100 100 100 100 100 100 100 100 100 88 52 81 81 92 91 36 13 31 34 5 5 5 5 5 6 47 34 8 11 6 6 32 100 100 100 5 27 11 5 5 49
100 100 100 100 100 100 100 100 100 100 100 100 100 98 100 100 78 78 52 12 48 28 23 58 52 78 68 79 95 58 65 100 100 100 100 95 31 97 100 78 93 85 100
100 100 100 100 100 100 100 100 100 100 100 100 100 100 100 100 100 100 98 81 99 99 96 100 100 75 46 76 100 100 100 100 100 100 96 31 63 76 90 100 100 100 100
100 100 100 100 100 100 100 79 100 100 100 100 100 100 100 100 100 100 100 99 100 100 100 100 100 100 100 100 100 100 100 100 100 100 63 19 44 59 100 100 100 100 100
93 100 100 100 96 100 100 99 100 100 100 100 100 100 100 100 100 100 100 100 100 100 100 100 100 100 100 100 100 100 100 100 89 81 100 100 99 83 92 100 100 100 100
100 95 100 100 100 100 100 100 100 100 100 100 100 100 100 100 100 100 100 100 100 100 100 100 100 100 100 100 100 100 100 100 100 100 100 100 81 100 100 100 100 100 100
100 100 100 100 100 100 100 100 100 100 100 100 100 100 100 100 100 100 100 100 100 100 100 100 100 100 100 100 100 100 100 100 100 100 100 100 100 100 100 100 100 100 100
100 100 100 100 100 100 100 100 100 100 100 100 100 100 100 100 100 100 87 100 100 100 100 100 100 100 100 100 100 100 90 96 100 100 100 100 100 100 100 100 100 100 100
98 100 100 100 100 100 100 100 100 100 100 100 100 100 100 100 100 100 100 100 100 100 100 100 100 100 98 83 98 100 100 100 100 100 100 100 100 100 100 100 100 100 100
95 100 100 100 100 100 100 100 96 100 100 100 100 100 100 100 100 100 100 100 99 100 100 100 100 100 100 100 100 100 100 100 100 100 100 100 100 100 100 100 100 100 100